DW1347 Weather Reports


time (UTC)temp
C
wind
direction
speed
KPH
gust
KPH
rain 1hr
cm
rain 24hr
cm
rain mn
cm
humidity
%
barometer
mb
20260504034601 7 179 3.2 3.2 0.00 0.00 0.00 52 1022.1
20260504034057 8 231 0.0 0.0 0.00 0.00 0.00 51 1022.0
20260504033555 8 222 0.0 0.0 0.00 0.00 0.00 50 1021.8
20260504033052 8 198 0.0 0.0 0.00 0.00 0.00 48 1021.8
20260504032549 8 186 1.6 1.6 0.00 0.00 0.00 48 1021.8
20260504032046 8 190 1.6 1.6 0.00 0.00 0.00 49 1021.8
20260504031543 9 211 0.0 0.0 0.00 0.00 0.00 47 1021.3
20260504031039 9 183 3.2 3.2 0.00 0.00 0.00 47 1022.0
20260504030537 8 199 1.6 1.6 0.00 0.00 0.00 48 1022.0
20260504030032 8 207 0.0 0.0 0.00 0.00 0.00 47 1021.8
20260504025530 9 205 0.0 0.0 0.00 0.00 0.00 48 1022.0
20260504025026 9 224 0.0 0.0 0.00 0.00 0.00 46 1021.8
20260504024523 9 176 3.2 3.2 0.00 0.00 0.00 46 1021.7
20260504024020 9 210 0.0 0.0 0.00 0.00 0.00 47 1021.7
20260504023517 10 209 1.6 1.6 0.00 0.00 0.00 48 1021.4
20260504023013 10 152 3.2 3.2 0.00 0.00 0.00 43 1021.8
20260504022509 10 197 0.0 1.6 0.00 0.00 0.00 44 1022.0
20260504022005 10 169 3.2 3.2 0.00 0.00 0.00 44 1021.7
20260504021503 10 220 0.0 0.0 0.00 0.00 0.00 45 1021.6
20260504021000 10 207 0.0 0.0 0.00 0.00 0.00 41 1021.8
20260504020456 11 214 0.0 0.0 0.00 0.00 0.00 42 1021.4
20260504015953 11 220 0.0 0.0 0.00 0.00 0.00 40 1021.6
20260504015449 11 204 0.0 0.0 0.00 0.00 0.00 39 1021.7
20260504014945 12 204 0.0 0.0 0.00 0.00 0.00 39 1021.4
20260504014441 12 209 0.0 0.0 0.00 0.00 0.00 39 1021.4
20260504013938 12 214 0.0 0.0 0.00 0.00 0.00 38 1021.3
20260504013437 12 208 0.0 0.0 0.00 0.00 0.00 37 1021.4
20260504012932 13 252 1.6 1.6 0.00 0.00 0.00 37 1021.1
20260504012431 13 281 4.8 9.7 0.00 0.00 0.00 36 1021.4
20260504011928 13 166 4.8 4.8 0.00 0.00 0.00 36 1021.1
20260504011425 13 218 0.0 0.0 0.00 0.00 0.00 35 1020.9
20260504010920 13 347 1.6 3.2 0.00 0.00 0.00 35 1020.9
20260504010417 13 224 1.6 3.2 0.00 0.00 0.00 35 1021.2
20260504005913 13 342 8.0 9.7 0.00 0.00 0.00 34 1020.9
20260504005410 13 307 3.2 3.2 0.00 0.00 0.00 34 1021.2
20260504004908 14 29 6.4 9.7 0.00 0.00 0.00 33 1021.3
20260504004405 14 274 3.2 3.2 0.00 0.00 0.00 33 1021.1
20260504003902 14 16 4.8 4.8 0.00 0.00 0.00 33 1021.2
20260504003358 15 356 3.2 4.8 0.00 0.00 0.00 32 1021.1
20260504002855 15 352 4.8 4.8 0.00 0.00 0.00 30 1021.1
20260504002352 15 231 0.0 0.0 0.00 0.00 0.00 30 1021.2
20260504001849 15 216 0.0 1.6 0.00 0.00 0.00 30 1021.1
20260504001347 15 237 1.6 3.2 0.00 0.00 0.00 31 1020.8
20260504000843 14 239 0.0 0.0 0.00 0.00 0.00 32 1021.1
20260504000341 15 117 17.7 22.5 0.00 0.00 0.00 31 1020.9
20260503235838 15 234 1.6 3.2 0.00 0.00 0.00 30 1021.1
20260503235335 15 132 4.8 8.0 0.00 0.00 0.00 29 1021.2
20260503234833 15 244 3.2 4.8 0.00 0.00 0.00 29 1021.1
20260503234330 15 232 4.8 4.8 0.00 0.00 0.00 28 1020.8
20260503233828 15 246 6.4 8.0 0.00 0.00 0.00 24 1020.8
20260503233323 15 225 1.6 1.6 0.00 0.00 0.00 29 1020.9
20260503232820 15 58 8.0 12.9 0.00 0.00 0.00 26 1020.4
20260503232318 16 148 3.2 4.8 0.00 0.00 0.00 25 1020.4
20260503231816 15 196 1.6 3.2 0.00 0.00 0.00 26 1020.7
20260503231312 16 226 0.0 0.0 0.00 0.00 0.00 26 1020.8
20260503230808 16 201 1.6 3.2 0.00 0.00 0.00 28 1020.8
20260503230306 16 229 0.0 1.6 0.00 0.00 0.00 26 1020.7
20260503225803 15 248 3.2 3.2 0.00 0.00 0.00 27 1021.1
20260503225258 15 245 1.6 3.2 0.00 0.00 0.00 26 1020.7
20260503224755 15 238 4.8 4.8 0.00 0.00 0.00 28 1020.9
20260503224253 16 225 1.6 1.6 0.00 0.00 0.00 27 1020.8
20260503223750 15 226 3.2 3.2 0.00 0.00 0.00 28 1020.8
20260503223248 15 236 3.2 3.2 0.00 0.00 0.00 28 1021.1
20260503222743 15 217 1.6 1.6 0.00 0.00 0.00 27 1021.1
20260503222242 15 219 4.8 4.8 0.00 0.00 0.00 27 1020.9
20260503221740 15 38 6.4 9.7 0.00 0.00 0.00 26 1021.1
20260503221237 15 252 8.0 9.7 0.00 0.00 0.00 27 1021.4
20260503220734 16 304 9.7 11.3 0.00 0.00 0.00 27 1021.4
20260503220231 15 33 8.0 9.7 0.00 0.00 0.00 27 1021.4
20260503215727 15 233 3.2 3.2 0.00 0.00 0.00 27 1021.4
20260503215224 15 305 8.0 9.7 0.00 0.00 0.00 26 1021.7
20260503214722 15 242 9.7 11.3 0.00 0.00 0.00 26 1021.7
20260503214219 15 349 14.5 17.7 0.00 0.00 0.00 25 1022.0
20260503213717 15 264 11.3 12.9 0.00 0.00 0.00 25 1021.7
20260503213213 16 228 3.2 4.8 0.00 0.00 0.00 24 1021.7
20260503212711 16 233 1.6 1.6 0.00 0.00 0.00 25 1022.0
20260503212208 16 21 9.7 11.3 0.00 0.00 0.00 23 1021.8
20260503211706 16 316 6.4 8.0 0.00 0.00 0.00 24 1021.8
20260503211202 16 229 11.3 12.9 0.00 0.00 0.00 25 1022.0
20260503210658 16 233 9.7 12.9 0.00 0.00 0.00 24 1022.3
20260503210155 16 318 6.4 8.0 0.00 0.00 0.00 24 1022.5
20260503205650 16 331 4.8 4.8 0.00 0.00 0.00 24 1022.3
20260503205146 16 287 6.4 9.7 0.00 0.00 0.00 24 1022.3
20260503204643 16 229 4.8 4.8 0.00 0.00 0.00 24 1022.5
20260503204141 15 238 6.4 8.0 0.00 0.00 0.00 24 1022.3
20260503203638 16 359 8.0 12.9 0.00 0.00 0.00 23 1022.5
20260503203135 16 354 14.5 16.1 0.00 0.00 0.00 23 1022.5
20260503202632 16 270 6.4 8.0 0.00 0.00 0.00 22 1022.6
20260503202130 16 274 3.2 3.2 0.00 0.00 0.00 23 1022.7
20260503201628 16 227 8.0 9.7 0.00 0.00 0.00 24 1022.6
20260503201125 16 32 6.4 9.7 0.00 0.00 0.00 23 1022.8
20260503200622 16 220 12.9 16.1 0.00 0.00 0.00 23 1022.7
20260503200118 17 10 11.3 14.5 0.00 0.00 0.00 23 1022.8
20260503195615 17 235 6.4 8.0 0.00 0.00 0.00 23 1022.7
20260503195111 17 242 6.4 8.0 0.00 0.00 0.00 23 1022.6
20260503194609 17 105 1.6 3.2 0.00 0.00 0.00 23 1023.0
20260503194103 16 251 1.6 1.6 0.00 0.00 0.00 25 1023.1
20260503193600 16 211 3.2 3.2 0.00 0.00 0.00 25 1023.3
20260503193055 16 224 9.7 11.3 0.00 0.00 0.00 26 1023.2
20260503192552 16 241 4.8 4.8 0.00 0.00 0.00 24 1023.3
20260503192048 17 221 6.4 8.0 0.00 0.00 0.00 25 1023.2
20260503191545 17 300 4.8 8.0 0.00 0.00 0.00 25 1023.3
20260503191042 17 313 1.6 3.2 0.00 0.00 0.00 24 1023.3
20260503190539 17 284 12.9 14.5 0.00 0.00 0.00 24 1023.3
20260503190037 17 260 8.0 9.7 0.00 0.00 0.00 25 1023.5
20260503185533 16 275 6.4 8.0 0.00 0.00 0.00 25 1024.0
20260503185033 16 68 3.2 3.2 0.00 0.00 0.00 25 1023.5
20260503184529 16 133 6.4 8.0 0.00 0.00 0.00 24 1023.8
20260503184026 16 238 6.4 8.0 0.00 0.00 0.00 28 1024.1
20260503183522 15 224 3.2 4.8 0.00 0.00 0.00 26 1024.1
20260503183019 15 222 9.7 12.9 0.00 0.00 0.00 27 1024.4
20260503182518 16 285 4.8 4.8 0.00 0.00 0.00 25 1024.2
20260503182015 16 107 6.4 8.0 0.00 0.00 0.00 25 1024.5
20260503181512 16 222 3.2 3.2 0.00 0.00 0.00 27 1024.5
20260503181008 16 213 4.8 4.8 0.00 0.00 0.00 27 1024.6
20260503180506 15 338 8.0 11.3 0.00 0.00 0.00 26 1024.4
20260503180003 15 353 6.4 8.0 0.00 0.00 0.00 26 1024.6
20260503175501 15 45 4.8 8.0 0.00 0.00 0.00 27 1024.7
20260503174956 15 225 1.6 3.2 0.00 0.00 0.00 28 1024.9
20260503174455 14 271 6.4 8.0 0.00 0.00 0.00 28 1024.9
20260503173950 14 6 8.0 11.3 0.00 0.00 0.00 27 1025.0
20260503173445 15 222 4.8 4.8 0.00 0.00 0.00 30 1025.1
20260503172943 14 216 1.6 1.6 0.00 0.00 0.00 29 1025.1
20260503172440 14 158 4.8 8.0 0.00 0.00 0.00 28 1025.4
20260503171937 14 222 1.6 3.2 0.00 0.00 0.00 31 1025.4
20260503171433 14 241 4.8 8.0 0.00 0.00 0.00 30 1025.4
20260503170931 14 234 8.0 11.3 0.00 0.00 0.00 29 1025.5
20260503170427 14 219 0.0 0.0 0.00 0.00 0.00 32 1025.5
20260503150814 10 262 6.4 9.7 0.00 0.00 0.00 39 1025.9
20260503150309 10 218 1.6 3.2 0.00 0.00 0.00 49 1026.0
20260503140234 5 225 0.0 0.0 0.00 0.00 0.00 61 1026.4
20260503131203 3 226 1.6 1.6 0.00 0.00 0.00 60 1026.1
20260503130701 2 195 1.6 1.6 0.00 0.00 0.00 58 1026.1
20260503130158 2 211 0.0 0.0 0.00 0.00 0.00 59 1026.0
20260503120118 1 222 0.0 0.0 0.00 0.00 0.00 62 1025.6
20260503110545 2 168 3.2 3.2 0.00 0.00 0.00 57 1025.4
20260503090432 2 217 0.0 0.0 0.00 0.00 0.00 61 1026.2
20260503081358 2 210 0.0 0.0 0.00 0.00 0.00 62 1026.4
20260503080855 1 200 0.0 0.0 0.00 0.00 0.00 62 1026.5
20260503080352 1 203 0.0 0.0 0.00 0.00 0.00 63 1026.5
20260503072829 1 231 0.0 0.0 0.00 0.00 0.00 60 1026.8
20260503072326 1 220 0.0 0.0 0.00 0.00 0.00 60 1027.1
20260503071822 1 176 1.6 1.6 0.00 0.00 0.00 59 1026.8
20260503071320 1 191 1.6 1.6 0.00 0.00 0.00 58 1026.6
20260503070815 1 190 1.6 1.6 0.00 0.00 0.00 58 1026.6
20260503070308 1 195 1.6 1.6 0.00 0.00 0.00 59 1026.9
20260503060232 1 218 0.0 0.0 0.00 0.00 0.00 52 1026.8
20260503054719 1 201 0.0 1.6 0.00 0.00 0.00 52 1026.6
20260503054216 2 213 0.0 0.0 0.00 0.00 0.00 51 1026.9
20260503053714 2 209 0.0 0.0 0.00 0.00 0.00 49 1027.1
20260503053213 2 208 0.0 0.0 0.00 0.00 0.00 46 1026.8
20260503052709 2 130 4.8 4.8 0.00 0.00 0.00 48 1026.6
20260503052206 2 183 1.6 1.6 0.00 0.00 0.00 50 1027.0
20260503051701 2 168 1.6 1.6 0.00 0.00 0.00 49 1027.0
20260503051159 3 226 1.6 1.6 0.00 0.00 0.00 47 1026.9
20260503050655 2 179 3.2 3.2 0.00 0.00 0.00 47 1026.9
20260503050152 3 219 1.6 3.2 0.00 0.00 0.00 46 1027.0
20260503045649 2 204 0.0 0.0 0.00 0.00 0.00 48 1027.1
20260503045146 2 220 0.0 0.0 0.00 0.00 0.00 47 1026.9
20260503044643 3 228 0.0 0.0 0.00 0.00 0.00 49 1026.9
20260503044141 3 175 3.2 3.2 0.00 0.00 0.00 47 1026.8
20260503043637 2 198 0.0 1.6 0.00 0.00 0.00 49 1026.8
20260503043134 3 222 0.0 0.0 0.00 0.00 0.00 49 1026.6
20260503042630 3 195 1.6 1.6 0.00 0.00 0.00 46 1026.9
20260503042126 3 228 0.0 0.0 0.00 0.00 0.00 46 1026.6
20260503041618 3 197 0.0 1.6 0.00 0.00 0.00 48 1026.5
20260503041115 3 199 0.0 0.0 0.00 0.00 0.00 49 1026.9
20260503040612 3 201 0.0 0.0 0.00 0.00 0.00 47 1026.5
20260503040109 3 205 0.0 0.0 0.00 0.00 0.00 48 1026.6
20260503035606 3 201 1.6 1.6 0.00 0.00 0.00 47 1026.8
20260503035103 3 201 0.0 1.6 0.00 0.00 0.00 47 1026.6